Location: Huisseau
(47.5933°N, 1.4533°E)
Time: 18:09:14
(UTC+00:00)

CENTAUR R/B - Pass Details

Date: 27 November 2025
Orbit: 633 x 1547 km, 63.4° (Epoch: 06 December)

Event Time Altitude Azimuth Distance (km) Brightness Sun altitude
Exits shadow 04:58:17 16° 228° (SW) 3,242 4.8 -22.7°
Drops below altitude 10° 05:00:54 10° 213° (SSW) 3,715 5.3 -22.2°
Sets 05:05:01 0° 198° (SSW) 4,697 6.0 -21.5°
